Total_Precipitation_Accumulation
0.00 0.00 0.01 0.02 0.03 0.01 0.01 0.01 0.00 0.01 0.01 0.01 0.01 0.01 0.01 0.01 0.04 0.10 0.10 0.20 0.21 0.27 0.45 0.62 0.74 0.77 0.60 0.41 0.32 0.31 0.27 0.14 0.05 0.02 0.01 0.00 0.00 0.00 0.00 0.00 0.00 0.00 0.00
0.00 0.00 0.00 0.01 0.03 0.02 0.01 0.00 0.00 0.00 0.00 0.00 0.00 0.00 0.00 0.00 0.01 0.03 0.02 0.06 0.25 0.41 0.48 0.59 0.74 0.76 0.62 0.43 0.31 0.29 0.28 0.20 0.11 0.04 0.02 0.01 0.00 0.00 0.00 0.00 0.00 0.00 0.00
0.01 0.01 0.01 0.00 0.04 0.05 0.02 0.01 0.00 0.00 0.00 0.00 0.00 0.01 0.01 0.01 0.02 0.05 0.09 0.13 0.21 0.29 0.36 0.40 0.57 0.70 0.65 0.52 0.36 0.33 0.32 0.30 0.25 0.12 0.05 0.03 0.02 0.00 0.00 0.00 0.00 0.00 0.00
0.01 0.02 0.01 0.00 0.03 0.06 0.01 0.00 0.00 0.00 0.00 0.00 0.01 0.00 0.00 0.01 0.02 0.05 0.10 0.18 0.19 0.12 0.20 0.31 0.38 0.47 0.57 0.62 0.58 0.57 0.53 0.47 0.43 0.26 0.12 0.06 0.03 0.01 0.00 0.00 0.00 0.00 0.00
0.01 0.02 0.02 0.02 0.04 0.04 0.01 0.00 0.00 0.00 0.00 0.00 0.00 0.00 0.00 0.00 0.00 0.01 0.06 0.11 0.11 0.11 0.12 0.21 0.40 0.40 0.52 0.70 0.80 0.82 0.80 0.74 0.67 0.47 0.23 0.13 0.07 0.02 0.00 0.00 0.00 0.00 0.00
0.04 0.03 0.03 0.05 0.06 0.04 0.04 0.02 0.00 0.00 0.00 0.00 0.00 0.01 0.00 0.00 0.00 0.01 0.02 0.05 0.09 0.10 0.09 0.13 0.16 0.20 0.30 0.48 0.66 0.79 0.86 0.94 0.94 0.68 0.47 0.33 0.17 0.04 0.00 0.00 0.00 0.00 0.00
0.06 0.06 0.06 0.07 0.07 0.05 0.11 0.07 0.01 0.00 0.00 0.00 0.01 0.01 0.00 0.00 0.00 0.00 0.00 0.00 0.03 0.10 0.13 0.22 0.27 0.31 0.30 0.36 0.38 0.50 0.70 0.88 1.00 0.89 0.76 0.54 0.26 0.07 0.01 0.00 0.00 0.00 0.00
0.06 0.06 0.08 0.09 0.06 0.06 0.13 0.09 0.02 0.02 0.04 0.05 0.01 0.00 0.00 0.00 0.01 0.00 0.00 0.00 0.02 0.05 0.10 0.19 0.31 0.39 0.33 0.27 0.31 0.41 0.63 0.81 0.86 0.94 0.94 0.68 0.31 0.08 0.02 0.00 0.00 0.00 0.00
0.12 0.10 0.09 0.13 0.07 0.07 0.09 0.10 0.06 0.05 0.10 0.08 0.04 0.02 0.01 0.01 0.01 0.00 0.00 0.00 0.01 0.03 0.03 0.06 0.10 0.10 0.09 0.17 0.33 0.39 0.51 0.57 0.56 0.65 0.68 0.51 0.26 0.09 0.03 0.01 0.00 0.00 0.00
0.19 0.17 0.14 0.12 0.09 0.09 0.07 0.11 0.14 0.12 0.09 0.04 0.04 0.06 0.07 0.04 0.01 0.00 0.00 0.00 0.01 0.03 0.06 0.05 0.05 0.02 0.02 0.10 0.25 0.31 0.29 0.21 0.17 0.22 0.23 0.17 0.12 0.06 0.02 0.01 0.00 0.00 0.00
0.21 0.21 0.19 0.17 0.18 0.18 0.14 0.16 0.18 0.14 0.06 0.02 0.01 0.03 0.03 0.02 0.01 0.01 0.01 0.01 0.00 0.01 0.04 0.03 0.03 0.02 0.03 0.09 0.15 0.17 0.12 0.06 0.05 0.07 0.05 0.02 0.02 0.01 0.00 0.00 0.00 0.00 0.00
0.15 0.17 0.20 0.23 0.23 0.19 0.13 0.13 0.15 0.11 0.04 0.03 0.02 0.01 0.01 0.01 0.01 0.01 0.01 0.01 0.01 0.00 0.00 0.00 0.01 0.03 0.07 0.09 0.06 0.07 0.05 0.03 0.02 0.02 0.02 0.01 0.00 0.00 0.00 0.00 0.00 0.00 0.00
0.16 0.15 0.17 0.15 0.11 0.08 0.07 0.08 0.08 0.08 0.06 0.09 0.07 0.03 0.02 0.02 0.04 0.04 0.02 0.01 0.00 0.00 0.00 0.00 0.00 0.00 0.02 0.03 0.02 0.03 0.02 0.02 0.02 0.01 0.01 0.00 0.00 0.00 0.00 0.00 0.00 0.00 0.00
0.12 0.08 0.06 0.04 0.03 0.03 0.04 0.10 0.16 0.13 0.16 0.18 0.16 0.08 0.06 0.06 0.06 0.08 0.07 0.05 0.04 0.02 0.01 0.01 0.00 0.00 0.00 0.01 0.01 0.01 0.01 0.01 0.01 0.01 0.01 0.00 0.00 0.00 0.00 0.00 0.00 0.00 0.00
0.04 0.03 0.02 0.01 0.01 0.01 0.03 0.07 0.17 0.15 0.15 0.21 0.30 0.20 0.10 0.11 0.10 0.09 0.11 0.09 0.06 0.08 0.06 0.02 0.01 0.00 0.00 0.00 0.00 0.00 0.00 0.00 0.00 0.00 0.00 0.00 0.00 0.00 0.00 0.00 0.00 0.00 0.00
0.01 0.01 0.01 0.01 0.00 0.01 0.03 0.07 0.14 0.22 0.18 0.20 0.32 0.26 0.18 0.16 0.15 0.11 0.10 0.09 0.13 0.16 0.12 0.06 0.04 0.01 0.00 0.00 0.00 0.00 0.00 0.00 0.00 0.00 0.00 0.00 0.00 0.00 0.00 0.00 0.00 0.00 0.00
0.00 0.00 0.00 0.00 0.00 0.01 0.01 0.02 0.07 0.16 0.19 0.16 0.22 0.20 0.18 0.16 0.14 0.11 0.09 0.08 0.17 0.24 0.24 0.16 0.09 0.05 0.01 0.00 0.00 0.00 0.00 0.00 0.00 0.00 0.00 0.00 0.00 0.00 0.00 0.00 0.00 0.00 0.00
0.00 0.00 0.00 0.00 0.00 0.00 0.01 0.01 0.01 0.05 0.11 0.15 0.23 0.29 0.32 0.34 0.26 0.13 0.11 0.10 0.14 0.20 0.28 0.35 0.30 0.18 0.07 0.01 0.01 0.01 0.00 0.00 0.00 0.00 0.00 0.00 0.00 0.00 0.00 0.00 0.00 0.00 0.00
0.00 0.00 0.00 0.00 0.00 0.00 0.00 0.00 0.00 0.01 0.05 0.10 0.21 0.31 0.33 0.31 0.26 0.18 0.16 0.13 0.11 0.10 0.15 0.27 0.32 0.23 0.19 0.10 0.04 0.02 0.01 0.00 0.00 0.00 0.00 0.00 0.00 0.00 0.00 0.00 0.00 0.00 0.00
0.00 0.00 0.00 0.00 0.00 0.00 0.00 0.00 0.00 0.01 0.03 0.06 0.11 0.17 0.22 0.22 0.23 0.21 0.16 0.14 0.13 0.10 0.09 0.12 0.18 0.25 0.32 0.25 0.17 0.14 0.10 0.05 0.02 0.01 0.01 0.01 0.01 0.01 0.01 0.01 0.00 0.00 0.00
0.00 0.00 0.00 0.00 0.00 0.00 0.00 0.01 0.01 0.01 0.02 0.03 0.04 0.05 0.06 0.08 0.10 0.11 0.12 0.12 0.12 0.10 0.09 0.09 0.12 0.18 0.24 0.23 0.20 0.21 0.12 0.08 0.07 0.07 0.05 0.03 0.03 0.03 0.03 0.02 0.01 0.01 0.00
0.00 0.00 0.00 0.00 0.00 0.00 0.00 0.01 0.00 0.00 0.01 0.01 0.01 0.01 0.01 0.01 0.02 0.02 0.03 0.04 0.05 0.06 0.08 0.10 0.14 0.22 0.20 0.14 0.21 0.23 0.20 0.20 0.18 0.17 0.13 0.09 0.10 0.08 0.07 0.04 0.03 0.01 0.01
0.00 0.00 0.00 0.00 0.00 0.00 0.00 0.00 0.00 0.00 0.00 0.00 0.00 0.00 0.00 0.00 0.00 0.00 0.02 0.05 0.05 0.04 0.03 0.05 0.09 0.16 0.15 0.09 0.17 0.29 0.25 0.22 0.22 0.15 0.13 0.12 0.14 0.12 0.14 0.10 0.05 0.02 0.01
0.00 0.00 0.00 0.00 0.00 0.00 0.00 0.00 0.00 0.00 0.00 0.00 0.00 0.00 0.00 0.00 0.00 0.00 0.01 0.02 0.02 0.02 0.02 0.02 0.03 0.04 0.03 0.03 0.06 0.14 0.21 0.16 0.15 0.14 0.11 0.12 0.13 0.15 0.17 0.14 0.10 0.06 0.03
0.04 0.01 0.00 0.00 0.00 0.00 0.00 0.00 0.00 0.00 0.00 0.00 0.00 0.00 0.00 0.00 0.00 0.00 0.00 0.00 0.00 0.00 0.00 0.01 0.01 0.03 0.03 0.02 0.02 0.02 0.05 0.09 0.16 0.19 0.10 0.10 0.08 0.09 0.11 0.11 0.11 0.09 0.07
0.05 0.02 0.01 0.00 0.00 0.00 0.00 0.00 0.00 0.00 0.00 0.00 0.00 0.00 0.00 0.00 0.00 0.00 0.00 0.00 0.00 0.00 0.00 0.00 0.00 0.00 0.00 0.01 0.01 0.01 0.01 0.01 0.04 0.10 0.05 0.05 0.05 0.04 0.04 0.05 0.06 0.06 0.07